Wind_Speed
5 6 7 7 7 7 7 7 8 9 10 10 11 11 11 10 10 10 10 10 9 9 9 8 8 7 7 7 7 6 6 6 6 6 7 7 7 7 8 8 8 8 8
4 6 7 7 7 7 7 7 8 9 10 10 10 10 10 10 10 10 10 9 9 8 8 8 7 7 6 6 6 6 6 6 6 6 6 7 7 7 8 8 8 8 7
4 6 7 7 7 8 8 7 8 9 9 10 10 10 9 9 9 9 9 8 8 8 7 7 7 6 6 6 6 6 6 6 6 6 6 6 6 7 7 7 7 7 7
5 6 7 7 7 8 8 8 8 9 9 10 10 9 9 9 8 8 8 7 7 7 6 6 6 6 5 5 5 5 6 6 6 6 6 6 6 7 7 7 7 7 7
6 7 7 7 7 8 8 8 9 9 9 10 10 9 9 8 8 8 7 7 7 6 5 5 5 5 5 5 5 5 5 6 5 5 5 6 6 7 6 6 6 6 6
7 8 8 8 8 8 9 9 9 9 9 9 9 9 8 8 7 7 6 6 6 5 4 4 4 4 4 4 4 4 4 5 5 5 5 5 6 6 6 5 5 6 5
8 9 9 9 9 9 9 9 10 10 10 9 9 8 7 7 6 6 5 5 4 4 3 3 3 4 4 4 4 4 4 4 4 5 5 5 6 6 6 6 5 5 4
9 10 10 10 10 10 10 10 10 10 10 10 9 8 7 7 6 5 5 4 3 3 3 3 3 4 4 3 4 4 4 4 4 5 5 5 6 7 7 6 5 5 4
9 10 11 11 11 11 11 11 11 11 10 10 9 8 7 6 6 5 4 3 3 3 2 2 3 3 4 3 3 3 3 3 4 5 5 5 6 7 6 6 6 5 4
9 10 12 13 12 13 13 12 12 11 11 10 9 8 7 6 6 5 4 3 3 2 2 3 3 3 4 3 3 3 3 4 4 5 4 5 6 6 6 6 6 5 5
9 11 12 13 13 13 14 13 13 13 12 11 10 9 8 7 6 5 4 3 3 3 2 3 2 3 4 3 3 3 3 4 5 5 4 4 5 6 6 6 6 6 6
10 11 13 14 14 14 15 15 14 14 13 12 11 10 8 7 7 6 4 4 4 3 2 2 3 3 4 3 3 3 4 4 4 5 5 5 5 5 6 6 6 6 6
10 12 14 15 16 17 16 16 15 15 14 13 12 11 9 8 7 6 5 5 4 3 3 3 3 3 3 3 4 3 4 4 4 4 5 5 5 6 6 6 6 6 6
11 13 15 16 18 19 18 17 16 15 15 14 13 12 10 9 8 7 6 6 5 4 3 3 4 4 4 4 4 4 4 4 4 5 5 5 5 6 6 7 7 7 7
12 13 15 15 18 20 20 19 18 17 16 15 14 13 11 9 8 7 6 6 6 5 4 4 5 4 4 3 3 4 4 4 5 5 5 5 6 6 6 7 7 8 8
12 12 15 15 18 20 21 21 21 20 18 17 15 14 12 10 9 7 6 6 6 6 5 5 5 5 4 4 3 4 4 4 5 5 5 5 6 6 6 7 7 8 8
12 13 14 15 17 20 21 22 22 22 20 19 17 15 13 11 10 9 7 7 6 6 6 6 5 5 5 4 4 4 4 4 4 4 5 5 5 5 6 7 7 7 7
13 14 15 16 17 20 22 22 22 22 21 20 18 16 14 12 11 10 9 8 8 7 7 7 6 6 5 5 5 5 4 4 4 4 4 4 4 5 5 6 6 6 6
15 16 17 19 18 21 23 24 23 22 21 20 19 17 15 14 12 11 10 9 9 8 8 8 7 6 6 6 5 5 4 4 4 4 3 3 4 4 4 4 5 5 6
17 17 18 19 21 22 25 25 24 23 21 21 20 18 17 15 13 12 11 11 10 9 8 8 7 6 6 6 6 5 4 4 4 3 3 3 3 3 3 4 4 5 6
18 18 18 20 21 22 24 25 25 24 22 21 20 19 18 16 14 13 12 11 11 10 9 8 8 7 6 6 6 5 5 4 4 4 3 3 2 3 3 4 5 5 6
17 17 18 19 22 22 23 25 26 25 24 23 21 20 19 17 15 14 13 12 12 11 10 9 9 8 7 6 6 6 5 4 4 3 3 3 3 4 4 5 5 6 6
15 16 17 18 19 22 24 25 27 26 25 23 22 22 20 18 17 16 14 13 13 12 11 10 9 9 8 7 7 6 5 5 4 4 4 4 4 4 5 5 6 6 6
12 14 15 17 19 21 22 25 26 26 24 23 23 22 21 19 18 17 15 15 14 13 12 12 11 9 9 8 7 7 6 5 5 5 4 5 5 6 6 6 6 7 7
11 11 13 16 18 19 21 23 25 25 25 24 23 22 21 19 18 17 16 15 14 13 13 12 11 10 10 9 8 7 7 6 6 6 5 6 6 7 7 7 8 8 9
9 10 12 14 16 18 21 24 25 24 24 24 23 22 20 20 19 18 16 15 14 14 13 13 12 11 10 10 9 8 8 7 7 7 7 7 7 8 8 9 9 10 10
Wind_Direction
150 159 158 161 164 165 167 164 159 150 139 130 121 113 107 102 98 94 93 93 93 92 90 90 91 90 87 85 82 84 90 97 101 108 108 108 108 109 115 115 113 111 110
157 162 164 167 171 173 174 170 166 157 147 137 127 119 113 108 102 98 95 94 93 93 92 92 92 92 90 88 87 90 96 99 102 112 116 114 112 113 117 118 116 114 111
178 172 169 175 179 179 179 176 172 164 153 143 134 127 118 112 108 104 100 97 95 95 94 93 94 96 95 94 93 96 100 106 108 119 121 120 120 120 120 122 122 119 117
192 183 179 181 183 184 185 182 178 170 160 150 140 133 126 120 114 109 106 101 99 99 99 98 99 99 99 99 99 101 105 112 119 124 125 125 128 129 128 127 128 127 125
199 196 192 189 189 189 191 188 185 177 166 156 147 140 133 127 121 114 110 105 102 101 103 105 104 105 106 107 108 110 115 119 123 127 132 133 134 136 135 134 134 135 134
206 199 198 198 197 196 196 195 191 184 174 165 156 149 141 135 130 124 117 112 108 107 110 113 115 117 120 120 121 123 124 129 131 133 138 143 145 146 147 145 142 140 138
211 207 206 206 205 202 200 198 197 192 182 174 165 159 153 144 139 134 126 120 116 114 119 124 132 133 131 133 136 142 141 144 146 146 145 152 158 159 157 156 151 146 143
220 215 211 209 208 206 203 200 198 196 189 181 174 168 163 156 148 142 134 126 123 124 127 133 142 146 147 146 144 155 162 155 160 163 165 163 167 168 168 168 164 161 159
230 221 216 214 212 209 206 204 201 199 195 187 182 178 175 168 160 153 148 143 139 140 140 144 153 161 164 161 160 167 178 176 175 175 174 173 176 177 180 181 177 177 180
237 230 222 218 215 212 209 208 204 203 201 194 190 188 186 183 177 171 169 165 155 152 165 167 168 174 177 174 171 177 184 190 187 177 179 182 190 190 193 195 191 190 194
241 233 225 220 218 217 214 213 209 207 205 201 198 196 194 192 186 184 184 183 174 171 179 187 190 191 190 189 185 187 196 195 196 195 195 198 199 198 202 203 203 205 209
246 238 230 222 221 219 217 217 214 211 208 205 204 202 199 195 192 195 194 186 184 192 201 199 201 200 197 197 195 196 198 197 192 196 203 207 208 210 215 213 215 219 222
255 240 233 225 221 221 220 219 216 213 210 208 207 205 203 202 203 204 204 197 194 204 206 200 195 191 194 195 197 200 201 204 206 208 214 215 217 222 224 225 227 229 235
262 244 235 230 223 221 221 219 217 214 212 211 209 206 207 207 209 210 211 204 202 206 207 197 191 190 189 189 200 206 209 212 219 223 221 221 225 232 236 238 239 242 245
264 248 240 237 224 220 219 221 220 218 216 215 213 210 209 209 210 213 216 214 208 208 206 200 199 198 196 199 209 213 216 221 223 226 229 230 235 244 251 255 252 255 255
264 248 237 235 224 219 220 219 219 219 217 216 215 213 211 210 212 211 211 208 205 206 204 198 202 208 213 214 213 216 220 227 227 226 229 234 242 248 255 262 265 266 265
260 247 239 235 226 222 219 218 218 219 219 218 218 215 212 211 214 215 210 205 201 201 200 197 200 204 211 217 218 220 226 229 229 228 232 240 248 252 260 263 269 277 277
257 247 241 237 230 223 219 216 217 217 219 219 218 216 214 213 213 214 211 208 206 204 201 199 201 205 213 223 228 229 226 220 221 227 235 246 253 256 261 266 274 283 290
260 251 244 239 229 222 220 216 215 217 217 216 216 215 216 214 214 214 213 212 209 206 201 203 208 213 221 228 229 222 214 211 218 226 235 243 251 260 266 274 284 290 296
261 257 248 237 228 223 219 216 215 217 216 216 217 216 217 217 217 217 216 213 211 210 207 207 212 216 221 223 222 218 213 216 224 233 238 240 252 262 271 282 288 294 299
261 253 249 236 232 227 223 219 216 215 215 216 217 217 219 219 217 216 214 212 212 211 210 210 215 216 217 218 218 217 216 219 229 238 242 249 262 267 274 283 291 295 300
256 247 244 234 231 227 224 220 216 214 216 217 218 218 218 217 217 216 217 216 215 214 213 214 215 213 212 215 217 212 208 218 227 231 241 255 268 276 278 283 289 295 299
261 247 241 231 227 225 224 221 216 215 215 218 219 219 218 218 218 219 220 220 217 216 216 214 213 213 212 211 213 215 218 226 235 242 248 258 268 277 281 283 286 289 294
265 250 242 228 226 223 223 219 215 214 215 217 217 218 217 218 217 218 220 221 219 216 215 215 213 214 213 214 216 218 222 229 240 250 254 262 271 277 281 282 285 290 295
266 251 235 227 225 222 217 215 213 212 214 215 216 216 217 217 217 217 218 218 217 215 216 213 211 209 211 212 215 219 224 232 241 250 261 270 277 281 282 284 286 289 294
263 247 228 224 221 220 215 213 209 210 213 214 215 215 216 217 217 217 216 217 217 214 211 207 208 211 212 216 221 225 231 238 246 255 266 275 280 283 284 284 285 289 292
Height
5889 5890 5890 5892 5892 5893 5894 5894 5894 5895 5895 5895 5896 5896 5897 5897 5898 5898 5898 5898 5898 5898 5898 5898 5898 5898 5898 5898 5898 5897 5897 5897 5897 5897 5897 5897 5897 5896 5896 5896 5896 5896 5896
5889 5889 5890 5891 5892 5893 5893 5894 5895 5895 5895 5896 5896 5897 5897 5898 5898 5898 5899 5899 5899 5899 5899 5899 5899 5899 5899 5899 5898 5898 5898 5898 5898 5897 5898 5898 5898 5898 5898 5898 5898 5898 5898
5889 5889 5889 5891 5892 5892 5893 5894 5895 5895 5896 5896 5896 5897 5897 5898 5898 5899 5899 5899 5899 5900 5900 5899 5899 5899 5899 5899 5899 5899 5899 5899 5898 5898 5898 5899 5898 5899 5899 5899 5899 5899 5900
5888 5888 5889 5890 5891 5892 5893 5894 5894 5895 5895 5896 5897 5897 5898 5898 5899 5899 5900 5900 5900 5900 5900 5900 5900 5900 5900 5900 5900 5899 5899 5899 5899 5899 5899 5899 5899 5900 5900 5900 5901 5901 5901
5887 5887 5888 5889 5890 5891 5892 5893 5894 5895 5895 5896 5896 5897 5898 5899 5899 5900 5900 5900 5900 5900 5900 5900 5900 5900 5900 5900 5900 5900 5900 5900 5900 5900 5900 5900 5900 5901 5901 5902 5902 5902 5902
5886 5886 5887 5889 5890 5890 5891 5892 5893 5894 5895 5896 5896 5897 5898 5899 5899 5900 5900 5900 5901 5901 5900 5901 5901 5901 5901 5901 5901 5901 5901 5901 5901 5900 5900 5901 5901 5902 5902 5903 5903 5903 5903
5885 5885 5886 5887 5889 5890 5891 5892 5893 5894 5894 5895 5896 5897 5898 5899 5899 5900 5900 5900 5900 5901 5900 5901 5901 5901 5901 5901 5901 5901 5901 5901 5901 5901 5901 5901 5902 5902 5903 5903 5903 5904 5904
5884 5884 5885 5886 5887 5889 5890 5891 5892 5893 5894 5895 5896 5896 5898 5898 5899 5899 5900 5900 5900 5900 5900 5900 5900 5900 5901 5901 5901 5901 5901 5901 5901 5901 5901 5902 5902 5902 5903 5904 5904 5905 5905
5882 5882 5883 5884 5885 5887 5888 5889 5890 5892 5893 5894 5895 5896 5897 5898 5898 5899 5899 5900 5900 5900 5900 5900 5900 5900 5900 5901 5901 5901 5901 5901 5901 5901 5902 5902 5902 5903 5903 5904 5904 5905 5905
5880 5880 5881 5882 5884 5885 5886 5888 5889 5891 5892 5893 5894 5895 5896 5897 5897 5898 5898 5899 5899 5899 5899 5899 5899 5900 5900 5900 5901 5901 5901 5901 5901 5901 5902 5902 5902 5903 5903 5904 5904 5905 5905
5877 5878 5879 5880 5881 5883 5884 5886 5888 5889 5890 5892 5893 5894 5895 5896 5896 5897 5897 5898 5898 5898 5898 5899 5899 5899 5899 5900 5900 5900 5901 5901 5901 5901 5902 5902 5902 5903 5903 5903 5904 5904 5905
5875 5875 5876 5878 5879 5880 5882 5884 5886 5887 5889 5890 5891 5892 5894 5895 5895 5896 5896 5897 5897 5897 5898 5898 5898 5898 5899 5899 5899 5900 5900 5901 5901 5901 5902 5902 5902 5903 5903 5903 5904 5904 5904
5872 5872 5873 5875 5876 5878 5880 5882 5884 5886 5887 5888 5890 5891 5892 5893 5894 5895 5895 5896 5896 5896 5897 5897 5897 5898 5898 5899 5899 5899 5900 5900 5900 5901 5901 5901 5902 5902 5902 5903 5903 5903 5904
5868 5869 5870 5872 5873 5875 5877 5879 5881 5883 5885 5887 5888 5890 5891 5892 5893 5894 5895 5895 5895 5895 5896 5896 5897 5897 5898 5898 5899 5899 5899 5900 5900 5900 5900 5901 5901 5902 5902 5902 5902 5902 5903
5865 5865 5866 5868 5870 5872 5874 5877 5879 5881 5883 5885 5886 5888 5889 5891 5892 5893 5894 5894 5894 5895 5895 5896 5896 5897 5897 5898 5898 5898 5899 5899 5899 5899 5900 5900 5901 5901 5901 5901 5901 5901 5901
5862 5862 5863 5864 5866 5868 5870 5873 5876 5878 5881 5883 5884 5886 5887 5889 5890 5891 5892 5893 5893 5894 5894 5895 5896 5896 5897 5897 5898 5898 5898 5898 5898 5899 5899 5899 5900 5900 5900 5900 5900 5900 5900
5859 5859 5859 5861 5862 5864 5867 5869 5872 5875 5878 5880 5882 5884 5885 5887 5888 5889 5891 5892 5892 5893 5894 5894 5895 5896 5896 5897 5897 5897 5897 5898 5898 5898 5898 5899 5899 5899 5899 5899 5899 5899 5898
5855 5855 5855 5857 5859 5861 5863 5866 5869 5872 5874 5877 5880 5882 5883 5885 5886 5888 5889 5890 5891 5892 5893 5894 5894 5895 5896 5896 5896 5896 5897 5897 5897 5897 5898 5898 5898 5898 5898 5898 5898 5898 5897
5851 5850 5851 5853 5855 5857 5860 5862 5866 5869 5871 5874 5877 5879 5881 5883 5885 5886 5887 5889 5890 5891 5892 5893 5894 5894 5895 5895 5895 5896 5896 5896 5897 5897 5897 5897 5897 5897 5897 5897 5897 5897 5896
5846 5846 5847 5848 5851 5853 5856 5859 5863 5866 5868 5872 5874 5877 5879 5881 5883 5884 5885 5886 5888 5890 5891 5892 5893 5893 5894 5894 5895 5895 5896 5896 5896 5896 5897 5897 5897 5897 5896 5896 5896 5896 5895
5842 5841 5843 5844 5846 5849 5852 5856 5860 5863 5866 5869 5872 5874 5876 5879 5881 5882 5884 5885 5886 5888 5889 5890 5891 5892 5893 5894 5895 5895 5895 5895 5895 5896 5896 5896 5896 5896 5896 5896 5895 5895 5895
5837 5837 5838 5839 5842 5845 5849 5852 5856 5859 5862 5865 5868 5871 5873 5876 5878 5880 5882 5883 5885 5886 5888 5889 5890 5891 5892 5893 5894 5894 5895 5896 5895 5895 5895 5896 5896 5895 5895 5895 5895 5894 5894
5832 5832 5833 5835 5837 5841 5844 5848 5851 5855 5858 5862 5865 5868 5871 5873 5876 5878 5880 5881 5883 5884 5886 5887 5889 5890 5891 5892 5892 5894 5894 5895 5895 5895 5895 5895 5895 5895 5895 5894 5894 5893 5893
5828 5828 5829 5831 5833 5836 5839 5843 5847 5852 5855 5859 5862 5865 5868 5870 5873 5875 5877 5879 5881 5882 5884 5885 5887 5888 5890 5890 5891 5892 5893 5893 5894 5894 5894 5894 5894 5894 5894 5893 5893 5892 5891
5825 5825 5826 5827 5830 5833 5836 5839 5844 5848 5852 5855 5858 5861 5865 5868 5870 5872 5874 5876 5878 5880 5882 5883 5885 5886 5888 5889 5890 5891 5892 5892 5892 5893 5893 5893 5893 5892 5892 5892 5891 5891 5890
5822 5822 5823 5825 5827 5829 5832 5836 5840 5844 5848 5852 5855 5859 5862 5865 5867 5870 5872 5874 5876 5878 5880 5882 5883 5885 5886 5887 5889 5890 5890 5891 5891 5891 5891 5891 5891 5891 5890 5890 5890 5889 5888